Weather Roundup
Issued by NWS Springfield, MO

Current Version | Previous Version | Text Only | Print | Product List | Glossary On
Versions: 1 2 3 4 5 6 7 8 9 10 11 12 13 14 15 16 17 18 19 20 21 22 23 24 25 26 27 28 29 30 31 32 33 34 35 36 37 38 39 40 41 42 43 44 45 46 47 48 49 50
000
NZUS99 KSGF 262157
HRRSGF

HOURLY WEATHER
NATIONAL WEATHER SERVICE SPRINGFIELD MO
500 PM CDT SUN MAR 26 2017

......SGF CWA......

CITY           SKY/WX    TMP DP  RH WIND       PRES   REMARKS
SPRINGFIELD    CLOUDY    66  49  54 SW10      29.88S
JOPLIN         CLOUDY    68  50  52 E10       29.83F
WEST PLAINS    CLOUDY    65  48  54 S9        29.92S
ROLLA          SUNNY     62  50  64 W5        29.89S
BRANSON        CLOUDY    68  48  49 CALM      29.90S

......SURROUNDING SGF CWA......

CITY           SKY/WX    TMP DP  RH WIND       PRES   REMARKS
CHANUTE        MOSUNNY   63  48  58 E10       29.80F
PARSONS        SUNNY     65  49  56 SE6       29.80F
COFFEYVILLE    MOSUNNY   68  49  50 SE14      29.80F
EMPORIA        CLOUDY    53  48  83 E14       29.81F
HARRISON AR    CLOUDY    70  49  47 SE8       29.89S

......KANSAS AND MISSOURI......

CITY           SKY/WX    TMP DP  RH WIND       PRES   REMARKS
KANSAS CTY INT CLOUDY    50  44  80 N3        29.89F
SEDALIA        CLOUDY    57  48  72 SW3       29.91S
ST JOSEPH      CLOUDY    50  43  77 N6        29.90F
ST LOUIS       PTSUNNY   62  49  62 W7        29.91R
WICHITA        CLOUDY    57  54  89 E9        29.78S
TOPEKA         CLOUDY    53  46  77 E7        29.86F
OLATHE         CLOUDY    52  46  80 NE3       29.88F

......TENNESSEE......

CITY           SKY/WX    TMP DP  RH WIND       PRES   REMARKS
MEMPHIS        NOT AVBL
NASHVILLE      PTSUNNY   74  52  46 S16       29.95F

......ARKANSAS.......

CITY           SKY/WX    TMP DP  RH WIND       PRES   REMARKS
FAYETTEVILLE   CLOUDY    68  47  46 S8        29.86F
FT SMITH       PTSUNNY   78  47  33 SE9       29.82F
LITTLE ROCK    MOSUNNY   76  50  40 S7        29.89F

......OKLAHOMA.......

CITY           SKY/WX    TMP DP  RH WIND       PRES   REMARKS
TULSA          TSTM      67  52  58 SE9       29.78S
PONCA CITY     CLOUDY    68  51  54 SE17      29.73F
MCALESTER      CLOUDY    78  48  34 SE12G25   29.75F
OKLAHOMA CITY  PTSUNNY   76  57  51 S14G22    29.70F

......IOWA............

CITY           SKY/WX    TMP DP  RH WIND       PRES   REMARKS
DES MOINES     NOT AVBL
QUAD CITIES    CLOUDY    52  49  89 SW14      29.84R FOG

......ILLINOIS........

CITY           SKY/WX    TMP DP  RH WIND       PRES   REMARKS
QUINCY         NOT AVBL
CHICAGO        CLOUDY    59  50  72 SW10G18   29.81R



USA.gov is the U.S. government's official web portal to all federal, state and local government web resources and services.